Weather History for KBVO - August, 2013

Change the Weather History Date:

Monday, August 26, 2013

  Actual Average Record
Temperature  
Mean Temperature 80 °F -  
Max Temperature 91 °F 94 °F 105 °F (1999)
Min Temperature 68 °F 65 °F 51 °F (2010)
Cooling Degree Days 14    
Growing Degree Days 30 (Base 50)    
Moisture  
Dew Point 71 °F    
Average Humidity 80    
Maximum Humidity 100    
Minimum Humidity 52    
Precipitation  
Precipitation 0.00 in - - ()
Sea Level Pressure  
Sea Level Pressure 30.13 in    
Wind  
Wind Speed 3 mph (SSW)    
Max Wind Speed 12 mph    
Max Gust Speed 17 mph    
Visibility 8 miles    
Events      
Averages and records for this station are not official NWS values.
T = Trace of Precipitation, MM = Missing Value Source: NWS Daily Summary

Daily Weather History Graph

Daily Weather History Graph

Search for Another Location

Airport or City:

Trip Planner

Search our weather history database for the weather conditions in past years. The results will help you decide how hot, cold, wet, or windy it might be!

Date:

Astronomy

Aug. 26, 2013 Rise Set
Actual Time 6:50 AM CDT 8:00 PM CDT
Civil Twilight 6:23 AM CDT 8:27 PM CDT
Nautical Twilight 5:51 AM CDT 8:58 PM CDT
Astronomical Twilight 5:18 AM CDT 9:32 PM CDT
Moon 11:22 PM CDT (8/26) 12:42 PM CDT (8/26)
Length of Visible Light 14h 03m
Length of Day
13h 09m
Waning Gibbous, 66% of the Moon is Illuminated
Aug 26
Waning Gibbous
Aug 28
Last Quarter
Sep 5
New
Sep 12
First Quarter
Sep 19
Full

Hourly Weather History & Observations

Time (CDT) Temp. Heat Index Dew Point Humidity Pressure Visibility Wind Dir Wind Speed Gust Speed Precip Events Conditions
12:53 AM 72.0 °F - 71.1 °F 97% 30.13 in 7.0 mi Calm Calm - N/A   Clear
1:53 AM 73.9 °F - 72.0 °F 93% 30.13 in 10.0 mi SSW 3.5 mph - N/A   Clear
2:53 AM 75.0 °F - 71.1 °F 87% 30.13 in 10.0 mi South 3.5 mph - N/A   Clear
3:53 AM 73.0 °F - 71.1 °F 93% 30.14 in 9.0 mi Calm Calm - N/A   Clear
4:53 AM 70.0 °F - 69.1 °F 97% 30.14 in 4.0 mi Calm Calm - N/A   Clear
5:53 AM 69.1 °F - 69.1 °F 100% 30.14 in 4.0 mi Calm Calm - N/A   Clear
6:45 AM 68.0 °F - 68.0 °F 100% 30.19 in 1.8 mi Calm Calm - N/A   Clear
6:53 AM 69.1 °F - 69.1 °F 100% 30.16 in 1.0 mi Calm Calm - N/A   Clear
7:01 AM 69.8 °F - 69.8 °F 100% 30.19 in 3.0 mi Calm Calm - N/A   Clear
7:53 AM 73.0 °F - 72.0 °F 96% 30.17 in 7.0 mi Calm Calm - N/A   Clear
8:53 AM 79.0 °F - 72.0 °F 79% 30.17 in 10.0 mi South 3.5 mph - N/A   Clear
9:53 AM 82.9 °F 88.0 °F 72.0 °F 69% 30.17 in 10.0 mi SSW 11.5 mph - N/A   Clear
10:53 AM 87.1 °F 93.6 °F 72.0 °F 61% 30.18 in 10.0 mi SSW 10.4 mph - N/A   Clear
11:53 AM 89.1 °F 96.0 °F 72.0 °F 57% 30.18 in 10.0 mi SSW 9.2 mph - N/A   Clear
12:53 PM 90.0 °F 96.4 °F 71.1 °F 54% 30.16 in 10.0 mi South 8.1 mph 17.3 mph N/A   Clear
1:53 PM 91.0 °F 97.6 °F 71.1 °F 52% 30.14 in 10.0 mi South 8.1 mph - N/A   Clear
2:53 PM 91.9 °F 100.7 °F 73.0 °F 54% 30.11 in 10.0 mi South 6.9 mph - N/A   Partly Cloudy
3:53 PM 89.1 °F 95.0 °F 71.1 °F 55% 30.09 in 10.0 mi SSW 8.1 mph - N/A   Clear
4:53 PM 91.0 °F 97.6 °F 71.1 °F 52% 30.08 in 10.0 mi South 9.2 mph - N/A   Clear
5:53 PM 90.0 °F 96.4 °F 71.1 °F 54% 30.07 in 10.0 mi SSW 6.9 mph - N/A   Clear
6:53 PM 87.1 °F 92.8 °F 71.1 °F 59% 30.06 in 10.0 mi SSW 4.6 mph - N/A   Clear
7:53 PM 79.0 °F - 73.0 °F 82% 30.07 in 10.0 mi Calm Calm - N/A   Clear
8:53 PM 73.9 °F - 72.0 °F 93% 30.09 in 10.0 mi SSW 3.5 mph - N/A   Clear
9:53 PM 71.1 °F - 70.0 °F 96% 30.09 in 10.0 mi Calm Calm - N/A   Clear
10:53 PM 70.0 °F - 69.1 °F 97% 30.09 in 8.0 mi Calm Calm - N/A   Clear
11:53 PM 70.0 °F - 69.1 °F 97% 30.07 in 7.0 mi Calm Calm - N/A   Clear